Location: Unspecified
(43.4680°N, 87.1740°E)
Time: 20:11:37
(UTC+00:00)

Cosmos 1980 - Pass Details

Date: 17 April 2021
Orbit: 838 x 848 km, 71.0° (Epoch: 11 May)

Event Time Altitude Azimuth Distance (km) Brightness Sun altitude
Rises 15:39:40 0° 333° (NNW) 3,417 8.1 -25.8°
Reaches altitude 10° 15:42:07 10° 332° (NNW) 2,479 7.1 -26.1°
Maximum altitude 15:47:48 75° 248° (WSW) 881 3.7 -26.8°
Enters shadow 15:48:17 70° 206° (SSW) 903 3.6 -26.9°
